User: anonymous   Login
Location: Mentone
(34.5413°N, 85.5351°W)
Time: 22:00:04
(UTC-05:00)
Language:

ERBS - Orbit

View from above orbital plane
View from above orbital plane
View from above satellite
View from above satellite

Ground track
Ground track

The orbit data is extracted from the following two-line orbital elements,

1 15354U 84108B   17147.53925605 +.00002121 +00000-0 +55270-4 0  9993
2 15354 057.0079 227.2781 0016280 073.5485 286.7358 15.43549795795019
Epoch (UTC): 27 May 2017 12:56:31
Eccentricity: 0.0016280
inclination: 57.0079°
perigee height: 424 km
apogee height: 447 km
right ascension of ascending node: 227.2781°
argument of perigee: 73.5485°
revolutions per day: 15.43549795
mean anomaly at epoch: 286.7358°
orbit number at epoch: 79501

The dashed part of the orbit path shows where the satellite is in the earth's shadow,  

DLR